Location: Bucharest
(44.4268°N, 26.1025°E)
Time: 02:15:28
(UTC+03:00)

ESTCUBE 1 - Pass Details

Date: 01 July 2022
Orbit: 646 x 657 km, 97.9° (Epoch: 07 August)

Event Time Altitude Azimuth Distance (km) Brightness Sun altitude
Exits shadow 00:07:49 24° 227° (SW) 1,344 ? -20.5°
Maximum altitude 00:09:27 31° 264° (W) 1,147 ? -20.6°
Drops below altitude 10° 00:13:25 10° 327° (NNW) 2,057 ? -20.8°
Sets 00:15:52 0° 338° (NNW) 2,974 ? -20.9°
